TimeCST,TemperatureF,Dew PointF,Humidity,Sea Level PressureIn,VisibilityMPH,Wind Direction,Wind SpeedMPH,Gust SpeedMPH,PrecipitationIn,Events,Conditions,WindDirDegrees,DateUTC
12:15 AM,33.8,32.0,93,30.20,10.0,ESE,12.7,-,N/A,,Clear,110,2013-02-09 06:15:00
12:35 AM,33.8,32.0,93,30.20,10.0,ESE,11.5,-,N/A,,Clear,110,2013-02-09 06:35:00
12:55 AM,33.8,32.0,93,30.20,10.0,ESE,9.2,16.1,N/A,,Clear,120,2013-02-09 06:55:00
1:15 AM,33.8,32.0,93,30.20,10.0,ESE,10.4,-,N/A,,Clear,120,2013-02-09 07:15:00
1:35 AM,33.8,32.0,93,30.20,10.0,ESE,11.5,-,N/A,,Clear,120,2013-02-09 07:35:00
1:55 AM,33.8,32.0,93,30.19,10.0,SE,13.8,17.3,N/A,,Clear,130,2013-02-09 07:55:00
2:15 AM,33.8,32.0,93,30.20,10.0,SE,11.5,-,N/A,,Clear,130,2013-02-09 08:15:00
2:35 AM,33.8,32.0,93,30.20,10.0,ESE,11.5,16.1,N/A,,Clear,120,2013-02-09 08:35:00
2:55 AM,33.8,32.0,93,30.20,7.0,ESE,9.2,-,N/A,,Clear,120,2013-02-09 08:55:00
3:15 AM,32.0,32.0,100,30.19,7.0,ESE,9.2,-,N/A,,Clear,110,2013-02-09 09:15:00
3:35 AM,32.0,32.0,100,30.19,7.0,ESE,10.4,-,N/A,,Clear,120,2013-02-09 09:35:00
3:55 AM,32.0,32.0,100,30.18,7.0,ESE,9.2,-,N/A,,Scattered Clouds,120,2013-02-09 09:55:00
4:15 AM,32.0,32.0,100,30.18,5.0,SE,11.5,-,N/A,,Overcast,130,2013-02-09 10:15:00
4:35 AM,32.0,32.0,100,30.19,5.0,SE,15.0,-,N/A,,Overcast,130,2013-02-09 10:35:00
4:55 AM,33.8,32.0,93,30.19,5.0,SE,13.8,20.7,N/A,,Overcast,130,2013-02-09 10:55:00
5:15 AM,32.0,32.0,100,30.17,5.0,ESE,16.1,20.7,N/A,,Overcast,120,2013-02-09 11:15:00
5:35 AM,32.0,32.0,100,30.16,5.0,ESE,12.7,-,N/A,,Overcast,120,2013-02-09 11:35:00
5:55 AM,32.0,32.0,100,30.17,5.0,ESE,15.0,-,N/A,,Overcast,110,2013-02-09 11:55:00
6:15 AM,32.0,32.0,100,30.17,5.0,ESE,12.7,21.9,N/A,,Overcast,120,2013-02-09 12:15:00
6:35 AM,32.0,32.0,100,30.17,5.0,ESE,12.7,-,N/A,,Overcast,120,2013-02-09 12:35:00
6:55 AM,32.0,32.0,100,30.18,7.0,ESE,12.7,21.9,N/A,,Overcast,120,2013-02-09 12:55:00
7:15 AM,32.0,32.0,100,30.18,5.0,SE,13.8,-,N/A,,Overcast,130,2013-02-09 13:15:00
7:35 AM,32.0,30.2,93,30.18,5.0,SE,16.1,-,N/A,,Scattered Clouds,130,2013-02-09 13:35:00
7:55 AM,32.0,30.2,93,30.17,7.0,SE,17.3,24.2,N/A,,Clear,130,2013-02-09 13:55:00
8:15 AM,32.0,30.2,93,30.16,7.0,ESE,13.8,23.0,N/A,,Clear,120,2013-02-09 14:15:00
8:35 AM,32.0,30.2,93,30.17,7.0,ESE,15.0,21.9,N/A,,Clear,120,2013-02-09 14:35:00
8:55 AM,32.0,30.2,93,30.17,7.0,SE,13.8,20.7,N/A,,Clear,130,2013-02-09 14:55:00
9:15 AM,33.8,30.2,87,30.16,7.0,SE,18.4,21.9,N/A,,Clear,130,2013-02-09 15:15:00
9:35 AM,33.8,30.2,87,30.16,10.0,SE,17.3,-,N/A,,Clear,130,2013-02-09 15:35:00
9:55 AM,33.8,30.2,87,30.16,10.0,SE,13.8,24.2,N/A,,Clear,130,2013-02-09 15:55:00
10:15 AM,35.6,32.0,87,30.15,10.0,SE,12.7,-,N/A,,Clear,130,2013-02-09 16:15:00
10:35 AM,37.4,32.0,81,30.14,10.0,ESE,18.4,-,N/A,,Clear,120,2013-02-09 16:35:00
10:55 AM,37.4,30.2,75,30.13,10.0,SE,12.7,23.0,N/A,,Scattered Clouds,130,2013-02-09 16:55:00
11:15 AM,37.4,30.2,75,30.13,10.0,SE,13.8,20.7,N/A,,Scattered Clouds,130,2013-02-09 17:15:00
11:35 AM,39.2,32.0,75,30.12,10.0,SE,12.7,20.7,N/A,,Mostly Cloudy,130,2013-02-09 17:35:00
11:55 AM,41.0,32.0,70,30.10,10.0,SE,15.0,21.9,N/A,,Overcast,140,2013-02-09 17:55:00
12:15 PM,41.0,30.2,65,30.09,10.0,SE,17.3,21.9,N/A,,Overcast,130,2013-02-09 18:15:00
12:35 PM,41.0,32.0,70,30.07,10.0,SE,13.8,-,N/A,,Mostly Cloudy,140,2013-02-09 18:35:00
12:55 PM,41.0,32.0,70,30.05,10.0,SE,17.3,20.7,N/A,,Scattered Clouds,140,2013-02-09 18:55:00
1:15 PM,41.0,32.0,70,30.03,10.0,SE,15.0,-,N/A,,Mostly Cloudy,130,2013-02-09 19:15:00
1:35 PM,41.0,32.0,70,30.04,10.0,SE,15.0,-,N/A,,Scattered Clouds,140,2013-02-09 19:35:00
1:55 PM,41.0,32.0,70,30.02,10.0,SE,11.5,-,N/A,,Clear,130,2013-02-09 19:55:00
2:15 PM,41.0,32.0,70,30.01,10.0,SE,11.5,-,N/A,,Mostly Cloudy,130,2013-02-09 20:15:00
2:35 PM,41.0,32.0,70,30.01,10.0,SE,16.1,19.6,N/A,,Overcast,140,2013-02-09 20:35:00
2:55 PM,41.0,32.0,70,29.99,10.0,SE,13.8,19.6,N/A,,Overcast,140,2013-02-09 20:55:00
3:15 PM,41.0,32.0,70,29.97,10.0,ESE,16.1,20.7,N/A,,Overcast,120,2013-02-09 21:15:00
3:35 PM,41.0,32.0,70,29.98,10.0,SE,10.4,-,N/A,,Overcast,130,2013-02-09 21:35:00
3:55 PM,39.2,32.0,75,29.99,10.0,SE,11.5,17.3,N/A,Rain,Light Rain,130,2013-02-09 21:55:00
4:15 PM,39.2,32.0,75,30.00,10.0,SE,13.8,18.4,N/A,,Overcast,130,2013-02-09 22:15:00
4:35 PM,39.2,32.0,75,29.99,10.0,SE,12.7,-,N/A,,Overcast,130,2013-02-09 22:35:00
4:55 PM,37.4,32.0,81,29.99,10.0,SE,10.4,16.1,N/A,,Light Drizzle,130,2013-02-09 22:55:00
5:15 PM,37.4,33.8,87,29.96,10.0,ESE,12.7,-,N/A,Rain,Light Rain,110,2013-02-09 23:15:00
5:35 PM,37.4,33.8,87,29.96,10.0,ESE,13.8,-,N/A,,Overcast,120,2013-02-09 23:35:00
5:55 PM,35.6,33.8,93,29.93,10.0,ESE,16.1,24.2,N/A,,Overcast,120,2013-02-09 23:55:00
6:15 PM,35.6,33.8,93,29.91,10.0,ESE,17.3,21.9,N/A,,Light Drizzle,120,2013-02-10 00:15:00
6:35 PM,35.6,33.8,93,29.89,7.0,ESE,21.9,26.5,N/A,Rain,Light Rain,110,2013-02-10 00:35:00
6:55 PM,35.6,33.8,93,29.87,10.0,ESE,18.4,27.6,N/A,,Overcast,110,2013-02-10 00:55:00
7:15 PM,35.6,33.8,93,29.92,10.0,SE,13.8,17.3,N/A,Thunderstorm,Overcast,140,2013-02-10 01:15:00
7:35 PM,35.6,33.8,93,29.89,10.0,ESE,17.3,23.0,N/A,Rain,Light Rain,120,2013-02-10 01:35:00
7:55 PM,35.6,33.8,93,29.90,7.0,SE,13.8,-,N/A,Rain,Light Rain,130,2013-02-10 01:55:00
8:15 PM,35.6,33.8,93,29.91,10.0,SE,13.8,23.0,N/A,,Overcast,140,2013-02-10 02:15:00
8:35 PM,35.6,33.8,93,29.90,10.0,SE,13.8,21.9,0.01,Rain,Light Rain,130,2013-02-10 02:35:00
8:55 PM,35.6,33.8,93,29.90,7.0,ESE,13.8,20.7,0.01,Rain,Light Rain,120,2013-02-10 02:55:00
9:15 PM,35.6,33.8,93,29.88,7.0,ESE,17.3,23.0,N/A,Rain-Thunderstorm,Light Thunderstorms and Rain,120,2013-02-10 03:15:00
9:35 PM,35.6,35.6,100,29.87,5.0,SE,18.4,24.2,0.02,Rain,Light Rain,130,2013-02-10 03:35:00
9:55 PM,35.6,35.6,100,29.86,7.0,SE,16.1,24.2,0.02,,Overcast,130,2013-02-10 03:55:00
10:15 PM,37.4,35.6,93,29.84,7.0,SE,18.4,25.3,N/A,,Overcast,130,2013-02-10 04:15:00
10:35 PM,37.4,35.6,93,29.84,7.0,SE,16.1,26.5,N/A,,Overcast,130,2013-02-10 04:35:00
10:55 PM,37.4,35.6,93,29.83,7.0,SE,18.4,24.2,N/A,,Overcast,140,2013-02-10 04:55:00
11:15 PM,37.4,35.6,93,29.81,7.0,SE,18.4,27.6,N/A,,Overcast,130,2013-02-10 05:15:00
11:35 PM,37.4,35.6,93,29.81,7.0,SE,17.3,27.6,N/A,,Overcast,130,2013-02-10 05:35:00
11:55 PM,37.4,35.6,93,29.80,7.0,SE,21.9,28.8,N/A,,Overcast,130,2013-02-10 05:55:00